Location: Unspecified
(0.0000°N, 0.0000°E)
Time: 23:00:45
(UTC+01:00)

HO-68 - Visible Passes

Search period start: 23 March 2017 00:00
Search period end: 02 April 2017 01:00
Orbit: 1192 x 1205 km, 100.1° (Epoch: 22 March)

Date Brightness Start Highest point End Pass type
(mag) Time Alt. Az. Time Alt. Az. Time Alt. Az.
23 Mar ? 20:53:49 10° S 21:00:33 45° WSW 21:07:16 10° NW visible
24 Mar ? 20:36:37 10° S 20:43:41 63° WSW 20:50:44 10° NNW visible
25 Mar ? 20:19:37 10° SSE 20:26:50 88° WSW 20:33:59 10° NNW visible
26 Mar ? 21:02:51 10° SSE 21:09:58 67° ENE 21:17:01 10° N visible
26 Mar ? 22:54:51 10° SW 22:57:16 12° WSW 22:59:42 10° W visible
27 Mar ? 20:46:17 10° SSE 20:53:06 47° ENE 20:59:52 10° N visible
27 Mar ? 22:35:50 10° SW 22:40:27 18° WSW 22:45:06 10° WNW visible
28 Mar ? 20:29:58 10° SE 20:36:14 33° ENE 20:42:27 10° NNE visible
28 Mar ? 22:17:49 10° SSW 22:23:37 27° WSW 22:29:24 10° NW visible
29 Mar ? 22:00:15 10° S 22:06:47 38° WSW 22:13:17 10° NW visible
30 Mar ? 21:42:58 10° S 21:49:55 55° WSW 21:56:51 10° NNW visible
31 Mar ? 21:25:53 10° S 21:33:03 77° WSW 21:40:11 10° NNW visible
01 Apr ? 21:09:01 10° SSE 21:16:11 77° ENE 21:23:18 10° N visible
